Flag for U.S.A. Weather past 2 weeks in Boulder, Colorado, U.S.A.

Now
52 °F

Low clouds.


Feels Like: 50 °F
Forecast: 50 / 72 °F
Wind: 6 mph from Southwest

Location: Broomfield / Jeffco

Current Time: May 28, 2015 at 6:41:45 AM

Latest Report: May 28, 2015 at 5:55 AM


Visibility: 7 mi

Pressure: 30.10 "Hg

Humidity: 94%

Dew point: 50 °F

Location of BoulderLocation

Historic Weather in Boulder — Graph

°F

Boulder temperature yesterday

Maximum temperature yesterday: 73 °F (at 2:45 PM)
Minimum temperature yesterday: 46 °F (at 5:16 AM)
Average temperature yesterday: 58 °F

Past Weeks' High & Low Weather Summary

 TemperatureHumidityPressure
High73 °F (May 14, 1:45 PM)100% (May 18, 5:56 AM)30.38 "Hg (May 18, 5:56 AM)
Low36 °F (May 20, 2:36 AM)17% (May 14, 2:45 PM)29.68 "Hg (May 16, 1:47 PM)
Average49 °F78%30.03 "Hg
* Reported May 13 5:15 AM — May 28 5:36 AM, Boulder, Weather by CustomWeather, © 2015

Note: Actual official high and low records may vary slightly from our data, if they occured in-between our weather recording intervals... More about our weather records

Advertising

Boulder weather history for previous 24 hours

 ConditionsComfort  
Time TempWeatherWind HumidityBarometerVisibility
5:36 AM
Thu, May 28
54 °FPassing clouds.No wind94%30.10 "Hg10 mi
5:16 AM54 °FPassing clouds.No wind94%30.10 "Hg10 mi
4:56 AM54 °FPassing clouds.No wind88%30.09 "Hg10 mi
4:36 AM54 °FMostly cloudy.8 mph94%30.09 "Hg10 mi
4:16 AM54 °FPassing clouds.6 mph94%30.09 "Hg10 mi
3:56 AM54 °FPassing clouds.9 mph94%30.07 "Hg10 mi
3:36 AM54 °FClear.9 mph94%30.07 "Hg10 mi
3:16 AM54 °FClear.6 mph88%30.07 "Hg10 mi
2:56 AM54 °FClear.8 mph88%30.07 "Hg10 mi
2:36 AM52 °FClear.No wind88%30.07 "Hg10 mi
2:16 AM55 °FClear.7 mph82%30.07 "Hg10 mi
1:55 AM54 °FClear.10 mph82%30.07 "Hg10 mi
1:36 AM54 °FClear.No wind82%30.09 "Hg10 mi
1:15 AM57 °FClear.7 mph67%30.07 "Hg10 mi
12:56 AM57 °FClear.6 mph63%30.08 "Hg10 mi
12:35 AM59 °FClear.No wind45%30.08 "Hg10 mi
12:16 AM59 °FClear.No wind42%30.08 "Hg10 mi
11:56 PM
Wed, May 27
61 °FClear.10 mph42%30.09 "Hg10 mi
11:36 PM61 °FPassing clouds.5 mph48%30.09 "Hg10 mi
11:16 PM61 °FPassing clouds.6 mph52%30.09 "Hg10 mi
9:45 PM63 °FThundershowers. Passing clouds.14 mph52%30.08 "Hg40 mi
8:45 PM63 °FPartly sunny.8 mph56%30.05 "Hg40 mi
7:47 PM66 °FPartly sunny.6 mph46%30.05 "Hg40 mi
6:45 PM73 °FPartly sunny.No wind29%30.02 "Hg40 mi
4:53 PM73 °FBroken clouds.No wind29%30.03 "Hg40 mi
3:45 PM73 °FScattered clouds.5 mph29%30.03 "Hg40 mi
2:45 PM73 °FThundershowers. Partly sunny.3 mph29%30.05 "Hg60 mi
1:45 PM72 °FPartly sunny.3 mph36%30.07 "Hg60 mi
12:54 PM70 °FBroken clouds.7 mph43%30.08 "Hg60 mi
11:57 AM70 °FBroken clouds.8 mph40%30.09 "Hg60 mi
10:47 AM66 °FBroken clouds.No wind49%30.11 "Hg60 mi
9:50 AM64 °FBroken clouds.No wind49%30.09 "Hg60 mi
8:46 AM59 °FBroken clouds.5 mph59%30.10 "Hg60 mi
6:48 AM50 °FScattered clouds.No wind76%30.09 "Hg60 mi
Weather by CustomWeather, © 2015

See weather overviewHow to use our weather pages